Home   Weather   Washington Junction   Past weeks
Flag for USA

Past Weather in Washington Junction, Maryland, USA — Yesterday and Last 2 Weeks

Now
90 °F

Scattered clouds.


Feels Like: 97 °F
Forecast: 90 / 76 °F
Wind: 12 mph from North

Location: Reagan National Airport

Current Time: Jul 18, 2019 at 7:39:12 pm

Latest Report: Jul 18, 2019 at 6:52 pm


Visibility: 10 mi

Pressure: 29.86 "Hg

Humidity: 56%

Dew Point: 72 °F

Location of Washington JunctionLocation

Past Weather in Washington Junction — Graph

°F

Washington Junction Temperature Yesterday

Maximum temperature yesterday: 94 °F (at 2:52 pm)
Minimum temperature yesterday: 75 °F (at 5:59 pm)
Average temperature yesterday: 83 °F

High & Low Weather Summary for the Past Weeks

 TemperatureHumidityPressure
High94 °F (Jul 17, 2:52 pm)97% (Jul 8, 9:28 am)30.12 "Hg (Jul 8, 9:28 am)
Low68 °F (Jul 9, 4:52 am)36% (Jul 13, 3:52 pm)29.78 "Hg (Jul 11, 5:52 pm)
Average81 °F71%29.97 "Hg
* Reported Jul 3 5:52 pm — Jul 18 5:52 pm, Washington Junction. Weather by CustomWeather, © 2019

Note: Actual official high and low records may vary slightly from our data, if they occured in-between our weather recording intervals... More about our weather records

Advertising

Washington Junction Weather History for the Previous 24 Hours

Scroll right to see more
 ConditionsComfort  
Time TempWeatherWind HumidityBarometerVisibility
5:52 pm
Thu, Jul 18
91 °FBroken clouds.10 mph52%29.85 "Hg10 mi
4:52 pm92 °FBroken clouds.8 mph51%29.86 "Hg10 mi
3:52 pm93 °FBroken clouds.12 mph50%29.86 "Hg10 mi
2:52 pm90 °FBroken clouds.13 mph57%29.88 "Hg10 mi
1:52 pm90 °FBroken clouds.10 mph56%29.88 "Hg10 mi
12:52 pm89 °FPartly sunny.8 mph57%29.88 "Hg10 mi
11:52 am87 °FBroken clouds.6 mph61%29.89 "Hg10 mi
10:52 am87 °FBroken clouds.6 mph63%29.89 "Hg10 mi
9:52 am84 °FScattered clouds.7 mph77%29.90 "Hg10 mi
8:52 am82 °FScattered clouds.6 mph79%29.89 "Hg10 mi
7:52 am80 °FScattered clouds.5 mph81%29.89 "Hg10 mi
6:52 am79 °FPartly sunny.7 mph84%29.88 "Hg10 mi
5:52 am78 °FPassing clouds.No wind87%29.88 "Hg10 mi
4:52 am79 °FPassing clouds.5 mph84%29.86 "Hg10 mi
3:52 am79 °FPartly cloudy.7 mph88%29.86 "Hg10 mi
2:52 am79 °FPassing clouds.6 mph88%29.88 "Hg10 mi
1:52 am79 °FPassing clouds.No wind88%29.89 "Hg10 mi
12:52 am79 °FPassing clouds.6 mph88%29.90 "Hg10 mi
11:52 pm
Wed, Jul 17
79 °FPassing clouds.No wind84%29.88 "Hg10 mi
10:52 pm79 °FOvercast.7 mph88%29.90 "Hg10 mi
9:54 pm79 °FOvercast.5 mph84%29.90 "Hg10 mi
8:52 pm78 °FPartly cloudy.5 mph84%29.88 "Hg10 mi
7:52 pm78 °FLight rain. Broken clouds.3 mph84%29.90 "Hg10 mi
Weather by CustomWeather, © 2019

See weather overview